Miscellaneous Local Product
Issued by NWS North Platte, NE

Home | Current Version | Previous Version | Text Only | Print | Product List | Glossary On
Versions: 1 2 3 4 5 6 7 8 9 10 11 12 13 14 15 16 17 18 19 20 21 22 23 24 25 26 27 28 29 30 31 32 33 34 35 36 37 38 39 40 41 42 43 44 45 46 47 48 49 50
932
AXUS43 KLBF 111410
MISLBF


WESTERN AND NORTH CENTRAL NEBRASKA HOURLY WEATHER ROUNDUP
NATIONAL WEATHER SERVICE NORTH PLATTE NE
800 AM CST THU FEB 11 2016

NOTE: "FAIR" INDICATES FEW OR NO CLOUDS BELOW 12,000 FEET WITH NO
SIGNIFICANT WEATHER AND/OR OBSTRUCTIONS TO VISIBILITY.

NOTE: STATIONS NOT REPORTING VARIABLES SUCH AS SKY/WEATHER OR
PRESSURE ARE PROVIDED BY THE NEBRASKA DEPARTMENT OF
ROADS...RAWS...AND APRS NETWORKS...AND ARE NOT UNDER
NATIONAL WEATHER SERVICE QUALITY CONTROL.

...OBSERVATIONS IN AND NEAR THE EASTERN PANHANDLE OF NEBRASKA...

CITY           SKY/WX    TMP DP  RH WIND       PRES   REMARKS
PINE RIDGE     CLOUDY    30  26  85 NW5       30.02S WCI  25
CHADRON        PTCLDY    30  26  85 W6        30.03F WCI  24
ALLIANCE       CLOUDY    33  27  78 W9        30.03F WCI  25
SIDNEY         CLOUDY    39  26  59 W14       30.09S WCI  31
CRESCENT LAKE    N/A     30  26  83 CALM        N/A
BIG SPRINGS      N/A     29  27  91 SW3         N/A
$$

...OBSERVATIONS IN NORTH CENTRAL NEBRASKA...

CITY           SKY/WX    TMP DP  RH WIND       PRES   REMARKS
VALENTINE      CLOUDY    29  27  92 SE7       30.09F FOG     WCI  22
THEDFORD       FOG       30  30  99 S6        30.10F VSB 3/4 WCI  24
AINSWORTH      CLOUDY    28  26  91 S6        30.10S WCI  21
O`NEILL        CLOUDY    24  23  96 SE7       30.16F FOG     WCI  16
ORD            CLOUDY    26  24  92 SE6       30.18R WCI  19
BROKEN BOW     CLOUDY    30  28  92 SE5       30.14S WCI  25
VALENTINE NWR    N/A     28  28  99 SE6         N/A  WCI  22
BUTTE            N/A     19  18  94 SE9         N/A  WCI   8
HALSEY           N/A     29  29  98 CALM        N/A
CHAMBERS         N/A     24  22  91 S5          N/A  WCI  18
EWING            N/A     20  19  93 CALM        N/A
$$

...OBSERVATIONS IN SOUTHWEST NEBRASKA AND FAR NORTHEAST COLORADO...

CITY           SKY/WX    TMP DP  RH WIND       PRES   REMARKS
HOLYOKE        FAIR      34  28  80 W9        30.11F WCI  26
IMPERIAL       PTCLDY    25  21  85 CALM      30.12F
OGALLALA       CLOUDY    26  24  91 CALM      30.11S
NORTH PLATTE   CLOUDY    27  26  96 S6        30.14R FOG     WCI  20
MCCOOK         FOG       22  21  96 SE6       30.17S VSB 1/4 WCI  14
LEXINGTON      CLOUDY    30  28  90 SE5       30.18R WCI  25
PAXTON           N/A     26  24  91 CALM        N/A
STAPLETON        N/A     26  25  95 CALM        N/A
GOTHENBURG       N/A     28  27  95 S6          N/A  WCI  22
CALLAWAY         N/A     28  27  96 S7          N/A  WCI  21
$$

...OBSERVATIONS IN CENTRAL LINCOLN COUNTY AREA...

CITY           SKY/WX    TMP DP  RH WIND       PRES   REMARKS
N.P. AIRPORT   CLOUDY    27  26  96 S6        30.14R FOG     WCI  20
N.P. DOWNTOWN    N/A     25  24  96 CALM        N/A
N.P. SOUTHEAST   N/A     25  24  93 CALM        N/A
N.P. HILLCREST   N/A     26  25  96 S5          N/A  WCI  20
$$

...SOME OBSERVATIONS FROM AROUND THE REGION...

CITY           SKY/WX    TMP DP  RH WIND       PRES   REMARKS
DENVER         CLOUDY    40  17  39 S15       30.13F WCI  32
LARAMIE        CLOUDY    37  16  42 SW17      30.19F WCI  27
CHEYENNE       CLOUDY    44  16  32 W21       30.12S
SCOTTSBLUFF    PTCLDY    36  26  67 NW7       30.06F WCI  30
RAPID CITY     FOG       27  27 100 S7        29.98R VSB 1/4 WCI  19
BISMARCK       LGT SNOW  20  14  77 E6        30.12F WCI  12
PIERRE         CLOUDY    23  20  88 SE10      30.13R WCI  12
WINNER         CLOUDY    28  23  81 SE8       30.13S WCI  20
SIOUX FALLS    CLOUDY    13   5  70 S8        30.25R WCI   2
OMAHA          CLOUDY    15   3  59 E5        30.33R WCI   8
GRAND ISLAND   CLOUDY    24  21  88 SE6       30.23R FOG     WCI  17
KANSAS CITY    CLOUDY    21  18  88 NE5       30.26R WCI  15
WICHITA        PTCLDY    29  23  78 N14       30.21R WCI  18
OKLAHOMA CITY  PTCLDY    41  32  70 N15       30.14R
LIBERAL        CLOUDY    25  18  74 NW7       30.20R WCI  17
HAYS           CLOUDY    28  18  64 NE8       30.22F WCI  20
GOODLAND       CLOUDY    29  22  75 W7        30.14F WCI  22
$$




USA.gov is the U.S. government's official web portal to all federal, state and local government web resources and services.